Norwood, MA

7:30 PM EDT on September 29, 2016 (GMT -0400)
Norwood Memorial

Weather History for KOWD - June, 2013

Change the Weather History Date:

Wednesday, June 5, 2013

  Actual Average Record
Temperature  
Mean Temperature 58 °F -  
Max Temperature 75 °F 71 °F 90 °F (2005)
Min Temperature 44 °F 48 °F 37 °F (2011)
Degree Days  
Heating Degree Days 6    
Growing Degree Days 8 (Base 50)    
Moisture  
Dew Point 46 °F    
Average Humidity 65    
Maximum Humidity 100    
Minimum Humidity 29    
Precipitation  
Precipitation 0.00 in - - ()
Sea Level Pressure  
Sea Level Pressure 30.14 in    
Wind  
Wind Speed 2 mph (South)    
Max Wind Speed 10 mph    
Max Gust Speed -    
Visibility 9 miles    
Events      
Averages and records for this station are not official NWS values.
T = Trace of Precipitation, MM = Missing Value Source: NWS Daily Summary

Daily Weather History Graph

Daily Weather History Graph

Search for Another Location

Airport or City:

Trip Planner

Search our weather history database for the weather conditions in past years. The results will help you decide how hot, cold, wet, or windy it might be!

Date:

Astronomy

Jun. 05, 2013 Rise Set
Actual Time 5:09 AM EDT 8:17 PM EDT
Civil Twilight 4:35 AM EDT 8:51 PM EDT
Nautical Twilight 3:51 AM EDT 9:35 PM EDT
Astronomical Twilight 2:59 AM EDT 10:27 PM EDT
Moon 3:14 AM EDT (6/5) 5:38 PM EDT (6/5)
Length of Visible Light 16h 16m
Length of Day
15h 08m
Waning Crescent, 8% of the Moon is Illuminated
Jun 5
Waning Crescent
Jun 8
New
Jun 16
First Quarter
Jun 23
Full
Jun 30
Last Quarter

Hourly Weather History & Observations

Time (EDT) Temp. Dew Point Humidity Pressure Visibility Wind Dir Wind Speed Gust Speed Precip Events Conditions
12:53 AM 50.0 °F 48.0 °F 93% 30.10 in 10.0 mi Calm Calm - N/A   Clear
1:53 AM 48.9 °F 48.0 °F 97% 30.11 in 10.0 mi Calm Calm - N/A   Clear
2:53 AM 46.0 °F 45.0 °F 96% 30.11 in 10.0 mi Calm Calm - N/A   Clear
3:53 AM 46.0 °F 46.0 °F 100% 30.12 in 5.0 mi Calm Calm - N/A   Clear
4:53 AM 44.1 °F 43.0 °F 96% 30.13 in 10.0 mi Calm Calm - N/A   Clear
5:37 AM 44.6 °F 44.6 °F 100% 30.14 in 1.8 mi Calm Calm - N/A   Clear
5:47 AM 44.6 °F 44.6 °F 100% 30.15 in 4.0 mi Calm Calm - N/A   Clear
5:53 AM 46.0 °F 45.0 °F 96% 30.15 in 10.0 mi Calm Calm - N/A   Clear
6:53 AM 55.0 °F 52.0 °F 89% 30.17 in 10.0 mi Calm Calm - N/A   Clear
7:53 AM 60.1 °F 48.0 °F 64% 30.17 in 10.0 mi NNW 3.5 mph - N/A   Clear
8:53 AM 64.9 °F 46.0 °F 50% 30.18 in 10.0 mi NW 5.8 mph - N/A   Clear
9:53 AM 68.0 °F 42.1 °F 39% 30.18 in 10.0 mi Variable 4.6 mph - N/A   Clear
10:53 AM 68.0 °F 39.9 °F 36% 30.18 in 10.0 mi Variable 3.5 mph - N/A   Clear
11:53 AM 69.1 °F 43.0 °F 39% 30.17 in 10.0 mi Variable 3.5 mph - N/A   Scattered Clouds
12:53 PM 71.1 °F 42.1 °F 35% 30.16 in 10.0 mi Variable 4.6 mph - N/A   Clear
1:53 PM 73.0 °F 41.0 °F 31% 30.14 in 10.0 mi Variable 5.8 mph - N/A   Partly Cloudy
2:53 PM 72.0 °F 41.0 °F 33% 30.12 in 10.0 mi Variable 3.5 mph - N/A   Scattered Clouds
3:53 PM 73.9 °F 42.1 °F 32% 30.11 in 10.0 mi Variable 4.6 mph - N/A   Partly Cloudy
4:53 PM 73.0 °F 39.0 °F 29% 30.09 in 10.0 mi Calm Calm - N/A   Clear
5:53 PM 69.1 °F 46.9 °F 45% 30.10 in 10.0 mi SSW 10.4 mph - N/A   Clear
6:53 PM 68.0 °F 48.0 °F 49% 30.11 in 10.0 mi South 6.9 mph - N/A   Clear
7:53 PM 64.0 °F 46.9 °F 54% 30.13 in 10.0 mi SSE 5.8 mph - N/A   Clear
8:53 PM 60.1 °F 48.0 °F 64% 30.14 in 10.0 mi SSE 4.6 mph - N/A   Clear
9:53 PM 57.9 °F 50.0 °F 75% 30.15 in 10.0 mi South 4.6 mph - N/A   Clear
10:53 PM 59.0 °F 52.0 °F 78% 30.16 in 10.0 mi South 4.6 mph - N/A   Clear
11:53 PM 59.0 °F 53.1 °F 81% 30.16 in 10.0 mi South 4.6 mph - N/A   Partly Cloudy